Time,TemperatureF,DewpointF,PressureIn,WindDirection,WindDirectionDegrees,WindSpeedMPH,WindSpeedGustMPH,Humidity,HourlyPrecipIn,Conditions,Clouds,dailyrainin,SoftwareType,DateUTC
2013-01-28 00:03:00,27.7,24.3,-100.00,ENE,67,0.0,0.0,-999,-99.99,,,0.00,LWC V2.00 B2112,2013-01-28 05:03:00,
2013-01-28 00:04:00,27.7,24.3,30.64,ENE,67,0.0,0.0,87,0.00,,,0.00,LWC V2.00 B2112,2013-01-28 05:04:00,
2013-01-28 00:06:00,27.9,24.5,30.63,ENE,67,0.0,0.0,87,0.00,,,0.00,LWC V2.00 B2112,2013-01-28 05:06:00,
2013-01-28 00:08:00,27.9,24.5,30.63,ENE,67,0.0,0.0,87,0.00,,,0.00,LWC V2.00 B2112,2013-01-28 05:08:00,
2013-01-28 00:13:00,28.0,24.7,30.62,ENE,67,0.0,0.0,87,0.00,,,0.00,LWC V2.00 B2112,2013-01-28 05:13:00,
2013-01-28 00:18:00,28.0,24.7,30.63,ENE,67,0.0,0.0,87,0.00,,,0.00,LWC V2.00 B2112,2013-01-28 05:18:00,
2013-01-28 00:23:00,28.0,24.7,30.63,ENE,67,0.0,0.0,87,0.00,,,0.00,LWC V2.00 B2112,2013-01-28 05:23:00,
2013-01-28 00:28:00,28.2,24.8,30.63,ENE,67,0.0,0.0,87,0.00,,,0.00,LWC V2.00 B2112,2013-01-28 05:28:00,
2013-01-28 00:33:00,28.6,25.5,30.62,ENE,67,0.0,0.0,88,0.00,,,0.00,LWC V2.00 B2112,2013-01-28 05:33:00,
2013-01-28 00:38:00,28.6,25.5,30.63,ENE,67,0.0,0.0,88,0.00,,,0.00,LWC V2.00 B2112,2013-01-28 05:38:00,
2013-01-28 00:43:00,28.9,25.8,30.63,ENE,67,0.0,0.0,88,0.00,,,0.00,LWC V2.00 B2112,2013-01-28 05:43:00,
2013-01-28 00:48:00,29.1,26.0,30.63,ENE,67,0.0,0.0,88,0.00,,,0.00,LWC V2.00 B2112,2013-01-28 05:48:00,
2013-01-28 00:53:00,29.1,26.0,30.62,ENE,67,0.0,0.0,88,0.00,,,0.00,LWC V2.00 B2112,2013-01-28 05:53:00,
2013-01-28 00:58:00,29.1,26.0,30.62,ENE,67,0.0,0.0,88,0.00,,,0.00,LWC V2.00 B2112,2013-01-28 05:58:00,
2013-01-28 01:03:00,29.1,26.0,30.62,ENE,67,0.0,0.0,-999,0.00,,,0.00,LWC V2.00 B2112,2013-01-28 06:03:00,
2013-01-28 01:08:00,29.1,26.0,30.62,ENE,67,0.0,0.0,88,0.00,,,0.00,LWC V2.00 B2112,2013-01-28 06:08:00,
2013-01-28 01:13:00,29.1,26.0,30.62,ENE,67,0.0,0.0,88,0.00,,,0.00,LWC V2.00 B2112,2013-01-28 06:13:00,
2013-01-28 01:18:00,29.1,26.0,30.62,ENE,67,0.0,0.0,88,0.00,,,0.00,LWC V2.00 B2112,2013-01-28 06:18:00,
2013-01-28 01:23:00,29.1,26.0,30.62,ENE,67,0.0,0.0,88,0.00,,,0.00,LWC V2.00 B2112,2013-01-28 06:23:00,
2013-01-28 01:28:00,29.1,26.0,30.62,ENE,67,0.0,0.0,88,0.00,,,0.00,LWC V2.00 B2112,2013-01-28 06:28:00,
2013-01-28 01:33:00,28.9,25.8,30.62,ENE,67,0.0,0.0,88,0.00,,,0.00,LWC V2.00 B2112,2013-01-28 06:33:00,
2013-01-28 01:38:00,28.9,25.8,30.62,ENE,67,0.0,0.0,88,0.00,,,0.00,LWC V2.00 B2112,2013-01-28 06:38:00,
2013-01-28 01:43:00,28.8,25.7,30.62,ENE,67,0.0,0.0,88,0.00,,,0.00,LWC V2.00 B2112,2013-01-28 06:43:00,
2013-01-28 01:48:00,28.6,25.5,30.62,ENE,67,0.0,0.0,88,0.00,,,0.00,LWC V2.00 B2112,2013-01-28 06:48:00,
2013-01-28 01:53:00,28.6,25.5,30.62,ENE,67,0.0,0.0,88,0.00,,,0.00,LWC V2.00 B2112,2013-01-28 06:53:00,
2013-01-28 01:58:00,28.6,25.5,30.61,ENE,67,0.0,0.0,88,0.00,,,0.00,LWC V2.00 B2112,2013-01-28 06:58:00,
2013-01-28 02:03:00,28.8,25.4,30.61,ENE,67,0.0,0.0,87,0.00,,,0.00,LWC V2.00 B2112,2013-01-28 07:03:00,
2013-01-28 02:08:00,28.8,25.4,30.61,ENE,67,0.0,0.0,87,0.00,,,0.00,LWC V2.00 B2112,2013-01-28 07:08:00,
2013-01-28 02:13:00,28.9,25.8,30.60,ENE,67,0.0,0.0,88,0.00,,,0.00,LWC V2.00 B2112,2013-01-28 07:13:00,
2013-01-28 02:18:00,29.1,26.0,30.61,ENE,67,0.0,0.0,88,0.00,,,0.00,LWC V2.00 B2112,2013-01-28 07:18:00,
2013-01-28 02:23:00,29.3,26.2,30.60,ENE,67,0.0,0.0,88,0.00,,,0.00,LWC V2.00 B2112,2013-01-28 07:23:00,
2013-01-28 02:28:00,29.5,26.4,30.60,ENE,67,0.0,0.0,88,0.00,,,0.00,LWC V2.00 B2112,2013-01-28 07:28:00,
2013-01-28 02:33:00,29.7,26.7,30.60,ENE,67,0.0,0.0,88,0.00,,,0.00,LWC V2.00 B2112,2013-01-28 07:33:00,
2013-01-28 02:38:00,29.8,26.7,30.60,ENE,67,0.0,0.0,88,0.00,,,0.00,LWC V2.00 B2112,2013-01-28 07:38:00,
2013-01-28 02:43:00,29.8,26.7,30.60,ENE,67,0.0,0.0,88,0.00,,,0.00,LWC V2.00 B2112,2013-01-28 07:43:00,
2013-01-28 02:48:00,30.0,26.9,30.61,ENE,67,0.0,0.0,88,0.00,,,0.00,LWC V2.00 B2112,2013-01-28 07:48:00,
2013-01-28 02:53:00,30.0,26.9,30.60,ENE,67,0.0,0.0,88,0.00,,,0.00,LWC V2.00 B2112,2013-01-28 07:53:00,
2013-01-28 02:58:00,30.0,26.9,30.60,ENE,67,0.0,0.0,88,0.00,,,0.00,LWC V2.00 B2112,2013-01-28 07:58:00,
2013-01-28 03:03:00,30.2,27.1,30.60,ENE,67,0.0,0.0,88,0.00,,,0.00,LWC V2.00 B2112,2013-01-28 08:03:00,
2013-01-28 03:08:00,30.4,27.3,30.61,ENE,67,0.0,0.0,88,0.00,,,0.00,LWC V2.00 B2112,2013-01-28 08:08:00,
2013-01-28 03:13:00,30.4,27.3,30.60,ENE,67,0.0,0.0,88,0.00,,,0.00,LWC V2.00 B2112,2013-01-28 08:13:00,
2013-01-28 03:18:00,30.6,27.6,30.60,ENE,67,0.0,0.0,88,0.00,,,0.00,LWC V2.00 B2112,2013-01-28 08:18:00,
2013-01-28 03:23:00,30.7,27.6,30.60,ENE,67,0.0,0.0,88,0.00,,,0.00,LWC V2.00 B2112,2013-01-28 08:23:00,
2013-01-28 03:28:00,30.9,27.8,30.61,ENE,67,0.0,0.0,88,0.00,,,0.00,LWC V2.00 B2112,2013-01-28 08:28:00,
2013-01-28 03:33:00,31.1,28.0,30.60,ENE,67,0.0,0.0,88,0.00,,,0.00,LWC V2.00 B2112,2013-01-28 08:33:00,
2013-01-28 03:38:00,31.3,28.2,30.60,ENE,67,0.0,0.0,88,0.00,,,0.00,LWC V2.00 B2112,2013-01-28 08:38:00,
2013-01-28 03:43:00,31.3,28.2,30.60,ENE,67,0.0,0.0,88,0.00,,,0.00,LWC V2.00 B2112,2013-01-28 08:43:00,
2013-01-28 03:48:00,31.3,28.2,30.60,ENE,67,0.0,0.0,88,0.00,,,0.00,LWC V2.00 B2112,2013-01-28 08:48:00,
2013-01-28 03:53:00,31.3,28.2,30.60,ENE,67,0.0,0.0,88,0.00,,,0.00,LWC V2.00 B2112,2013-01-28 08:53:00,
2013-01-28 03:58:00,31.5,28.4,30.60,ENE,67,0.0,0.0,88,0.00,,,0.00,LWC V2.00 B2112,2013-01-28 08:58:00,
2013-01-28 04:03:00,31.6,28.5,30.59,ENE,67,0.0,0.0,88,0.00,,,0.00,LWC V2.00 B2112,2013-01-28 09:03:00,
2013-01-28 04:08:00,31.6,28.5,30.60,ENE,67,0.0,0.0,88,0.00,,,0.00,LWC V2.00 B2112,2013-01-28 09:08:00,
2013-01-28 04:13:00,31.6,28.5,30.60,ENE,67,0.0,0.0,88,0.00,,,0.00,LWC V2.00 B2112,2013-01-28 09:13:00,
2013-01-28 04:18:00,31.8,28.7,30.60,ENE,67,0.0,0.0,88,0.00,,,0.00,LWC V2.00 B2112,2013-01-28 09:18:00,
2013-01-28 04:23:00,31.8,28.7,30.60,ENE,67,0.0,0.0,88,0.00,,,0.00,LWC V2.00 B2112,2013-01-28 09:23:00,
2013-01-28 04:28:00,31.8,28.7,30.60,ENE,67,0.0,0.0,88,0.00,,,0.00,LWC V2.00 B2112,2013-01-28 09:28:00,
2013-01-28 04:33:00,31.8,28.7,30.59,ENE,67,0.0,0.0,88,0.00,,,0.00,LWC V2.00 B2112,2013-01-28 09:33:00,
2013-01-28 04:38:00,32.0,29.2,30.59,ENE,67,0.0,0.0,89,0.00,,,0.00,LWC V2.00 B2112,2013-01-28 09:38:00,
2013-01-28 04:43:00,32.2,29.4,30.59,ENE,67,0.0,0.0,89,0.00,,,0.00,LWC V2.00 B2112,2013-01-28 09:43:00,
2013-01-28 04:48:00,32.2,29.4,30.59,ENE,67,0.0,0.0,89,0.00,,,0.00,LWC V2.00 B2112,2013-01-28 09:48:00,
2013-01-28 04:53:00,32.2,29.4,30.60,ENE,67,0.0,0.0,89,0.00,,,0.00,LWC V2.00 B2112,2013-01-28 09:53:00,
2013-01-28 04:58:00,32.2,29.4,30.60,ENE,67,0.0,0.0,89,0.00,,,0.00,LWC V2.00 B2112,2013-01-28 09:58:00,
2013-01-28 05:03:00,32.2,29.4,30.59,ENE,67,0.0,0.0,89,0.00,,,0.00,LWC V2.00 B2112,2013-01-28 10:03:00,
2013-01-28 05:08:00,32.4,29.5,30.59,ENE,67,0.0,0.0,89,0.00,,,0.00,LWC V2.00 B2112,2013-01-28 10:08:00,
2013-01-28 05:13:00,32.4,29.5,30.59,ENE,67,0.0,0.0,89,0.00,,,0.00,LWC V2.00 B2112,2013-01-28 10:13:00,
2013-01-28 05:18:00,32.5,29.7,30.59,ENE,67,0.0,0.0,89,0.00,,,0.00,LWC V2.00 B2112,2013-01-28 10:18:00,
2013-01-28 05:23:00,32.7,29.8,30.59,ENE,67,0.0,0.0,89,0.00,,,0.00,LWC V2.00 B2112,2013-01-28 10:23:00,
2013-01-28 05:28:00,32.7,29.8,30.59,ENE,67,0.0,0.0,89,0.00,,,0.00,LWC V2.00 B2112,2013-01-28 10:28:00,
2013-01-28 05:33:00,32.7,29.8,30.58,ENE,67,0.0,0.0,89,0.00,,,0.00,LWC V2.00 B2112,2013-01-28 10:33:00,
2013-01-28 05:38:00,32.9,30.0,30.59,ENE,67,0.0,0.0,89,0.00,,,0.00,LWC V2.00 B2112,2013-01-28 10:38:00,
2013-01-28 05:43:00,32.9,30.0,30.58,ENE,67,0.0,0.0,89,0.00,,,0.00,LWC V2.00 B2112,2013-01-28 10:43:00,
2013-01-28 05:48:00,32.9,30.0,30.59,ENE,67,0.0,0.0,89,0.00,,,0.00,LWC V2.00 B2112,2013-01-28 10:48:00,
2013-01-28 05:53:00,33.1,30.2,30.59,ENE,67,0.0,0.0,89,0.00,,,0.00,LWC V2.00 B2112,2013-01-28 10:53:00,
2013-01-28 05:58:00,33.1,30.2,30.58,ENE,67,0.0,0.0,89,0.00,,,0.00,LWC V2.00 B2112,2013-01-28 10:58:00,
2013-01-28 06:03:00,33.3,30.3,30.58,ENE,67,0.0,0.0,89,0.00,,,0.00,LWC V2.00 B2112,2013-01-28 11:03:00,
2013-01-28 06:08:00,33.3,30.3,30.59,ENE,67,0.0,0.0,89,0.00,,,0.00,LWC V2.00 B2112,2013-01-28 11:08:00,
2013-01-28 06:13:00,33.3,30.0,30.59,ENE,67,0.0,0.0,88,0.00,,,0.00,LWC V2.00 B2112,2013-01-28 11:13:00,
2013-01-28 06:18:00,33.1,30.0,30.59,ENE,67,0.0,0.0,88,0.00,,,0.00,LWC V2.00 B2112,2013-01-28 11:18:00,
2013-01-28 06:23:00,33.3,30.0,30.59,ENE,67,0.0,0.0,88,0.00,,,0.00,LWC V2.00 B2112,2013-01-28 11:23:00,
2013-01-28 06:28:00,33.4,30.2,30.58,ENE,67,0.0,0.0,88,0.00,,,0.00,LWC V2.00 B2112,2013-01-28 11:28:00,
2013-01-28 06:33:00,33.4,30.2,30.58,ENE,67,0.0,0.0,88,0.00,,,0.00,LWC V2.00 B2112,2013-01-28 11:33:00,
2013-01-28 06:38:00,33.3,30.0,30.58,ENE,67,0.0,0.0,88,0.00,,,0.00,LWC V2.00 B2112,2013-01-28 11:38:00,
2013-01-28 06:43:00,33.3,30.0,30.58,ENE,67,0.0,0.0,88,0.00,,,0.00,LWC V2.00 B2112,2013-01-28 11:43:00,
2013-01-28 06:48:00,33.3,30.0,30.58,ENE,67,0.0,0.0,88,0.00,,,0.00,LWC V2.00 B2112,2013-01-28 11:48:00,
2013-01-28 06:53:00,33.3,30.0,30.57,ENE,67,0.0,0.0,88,0.00,,,0.00,LWC V2.00 B2112,2013-01-28 11:53:00,
2013-01-28 06:58:00,33.3,30.0,30.57,ENE,67,0.0,0.0,88,0.00,,,0.00,LWC V2.00 B2112,2013-01-28 11:58:00,
2013-01-28 07:03:00,33.3,30.0,30.57,ENE,67,0.0,0.0,88,0.00,,,0.00,LWC V2.00 B2112,2013-01-28 12:03:00,
2013-01-28 07:08:00,33.4,30.5,30.57,ENE,67,0.0,0.0,89,0.00,,,0.00,LWC V2.00 B2112,2013-01-28 12:08:00,
2013-01-28 07:13:00,33.4,30.5,30.58,ENE,67,0.0,0.0,89,0.00,,,0.00,LWC V2.00 B2112,2013-01-28 12:13:00,
2013-01-28 07:18:00,33.4,30.5,30.59,ENE,67,0.0,0.0,89,0.00,,,0.00,LWC V2.00 B2112,2013-01-28 12:18:00,
2013-01-28 07:23:00,33.4,30.5,30.59,ENE,67,0.0,0.0,89,0.00,,,0.00,LWC V2.00 B2112,2013-01-28 12:23:00,
2013-01-28 07:28:00,33.6,30.6,30.59,ENE,67,0.0,0.0,89,0.00,,,0.00,LWC V2.00 B2112,2013-01-28 12:28:00,
2013-01-28 07:33:00,33.6,30.6,30.59,ENE,67,0.0,0.0,89,0.00,,,0.00,LWC V2.00 B2112,2013-01-28 12:33:00,
2013-01-28 07:38:00,33.6,30.6,30.59,ENE,67,0.0,0.0,89,0.00,,,0.00,LWC V2.00 B2112,2013-01-28 12:38:00,
2013-01-28 07:43:00,33.6,30.6,30.59,ENE,67,0.0,0.0,89,0.00,,,0.00,LWC V2.00 B2112,2013-01-28 12:43:00,
2013-01-28 07:48:00,33.8,30.8,30.59,ENE,67,0.0,0.0,89,0.00,,,0.00,LWC V2.00 B2112,2013-01-28 12:48:00,
2013-01-28 07:53:00,33.8,30.8,30.60,ENE,67,0.0,0.0,89,0.00,,,0.00,LWC V2.00 B2112,2013-01-28 12:53:00,
2013-01-28 07:58:00,33.8,30.8,30.59,ENE,67,0.0,0.0,89,0.00,,,0.00,LWC V2.00 B2112,2013-01-28 12:58:00,
2013-01-28 08:03:00,34.0,31.0,30.59,ENE,67,0.0,0.0,89,0.00,,,0.00,LWC V2.00 B2112,2013-01-28 13:03:00,
2013-01-28 08:08:00,34.0,31.0,30.59,ENE,67,0.0,0.0,89,0.00,,,0.00,LWC V2.00 B2112,2013-01-28 13:08:00,
2013-01-28 08:13:00,34.2,31.2,30.59,ENE,67,0.0,0.0,89,0.00,,,0.00,LWC V2.00 B2112,2013-01-28 13:13:00,
2013-01-28 08:18:00,34.3,31.4,30.59,ENE,67,0.0,0.0,89,0.00,,,0.00,LWC V2.00 B2112,2013-01-28 13:18:00,
2013-01-28 08:23:00,34.3,31.6,30.60,ENE,67,0.0,0.0,90,0.00,,,0.00,LWC V2.00 B2112,2013-01-28 13:23:00,
2013-01-28 08:28:00,34.3,31.6,30.59,ENE,67,0.0,0.0,90,0.00,,,0.00,LWC V2.00 B2112,2013-01-28 13:28:00,
2013-01-28 08:33:00,34.5,31.8,30.59,ENE,67,0.0,0.0,90,0.00,,,0.00,LWC V2.00 B2112,2013-01-28 13:33:00,
2013-01-28 08:38:00,34.5,31.8,30.59,ENE,67,0.0,0.0,90,0.00,,,0.00,LWC V2.00 B2112,2013-01-28 13:38:00,
2013-01-28 08:43:00,34.5,31.8,30.59,ENE,67,0.0,0.0,90,0.00,,,0.00,LWC V2.00 B2112,2013-01-28 13:43:00,
2013-01-28 08:48:00,34.5,31.8,30.59,ENE,67,0.0,0.0,90,0.00,,,0.00,LWC V2.00 B2112,2013-01-28 13:48:00,
2013-01-28 08:53:00,34.5,31.8,30.59,ENE,67,0.0,0.0,90,0.00,,,0.00,LWC V2.00 B2112,2013-01-28 13:53:00,
2013-01-28 08:58:00,34.7,32.0,30.59,ENE,67,0.0,0.0,90,0.00,,,0.00,LWC V2.00 B2112,2013-01-28 13:58:00,
2013-01-28 09:03:00,34.7,32.0,30.59,ENE,67,0.0,0.0,90,0.00,,,0.00,LWC V2.00 B2112,2013-01-28 14:03:00,
2013-01-28 09:08:00,34.9,32.2,30.59,ENE,67,0.0,0.0,90,0.00,,,0.00,LWC V2.00 B2112,2013-01-28 14:08:00,
2013-01-28 09:13:00,34.9,32.2,30.59,ENE,67,0.0,0.0,90,0.00,,,0.00,LWC V2.00 B2112,2013-01-28 14:13:00,
2013-01-28 09:18:00,35.2,32.5,30.59,ENE,67,0.0,0.0,90,0.00,,,0.00,LWC V2.00 B2112,2013-01-28 14:18:00,
2013-01-28 09:23:00,35.2,32.5,30.59,ENE,67,0.0,0.0,90,0.00,,,0.00,LWC V2.00 B2112,2013-01-28 14:23:00,
2013-01-28 09:28:00,35.4,32.4,30.59,ENE,67,0.0,0.0,89,0.00,,,0.00,LWC V2.00 B2112,2013-01-28 14:28:00,
2013-01-28 09:33:00,35.8,32.8,30.59,ENE,67,0.0,0.0,89,0.00,,,0.00,LWC V2.00 B2112,2013-01-28 14:33:00,
2013-01-28 09:38:00,35.8,32.8,30.58,ENE,67,0.0,0.0,89,0.00,,,0.00,LWC V2.00 B2112,2013-01-28 14:38:00,
2013-01-28 09:43:00,36.0,33.0,30.58,ENE,67,0.0,0.0,89,0.00,,,0.00,LWC V2.00 B2112,2013-01-28 14:43:00,
2013-01-28 09:48:00,36.3,33.3,30.58,ENE,67,0.0,0.0,89,0.00,,,0.00,LWC V2.00 B2112,2013-01-28 14:48:00,
2013-01-28 09:53:00,36.7,33.7,30.58,ENE,67,0.0,0.0,89,0.00,,,0.00,LWC V2.00 B2112,2013-01-28 14:53:00,
2013-01-28 09:58:00,37.0,34.1,30.58,ENE,67,0.0,0.0,89,0.00,,,0.00,LWC V2.00 B2112,2013-01-28 14:58:00,
2013-01-28 10:03:00,37.4,34.4,30.58,ENE,67,0.0,0.0,89,0.00,,,0.00,LWC V2.00 B2112,2013-01-28 15:03:00,
2013-01-28 10:08:00,37.8,34.5,30.57,ENE,67,1.8,1.8,88,0.00,,,0.00,LWC V2.00 B2112,2013-01-28 15:08:00,
2013-01-28 10:13:00,38.1,34.8,30.58,SE,135,0.0,0.0,88,0.00,,,0.00,LWC V2.00 B2112,2013-01-28 15:13:00,
2013-01-28 10:18:00,38.8,35.3,30.57,SE,135,0.0,0.0,87,0.00,,,0.00,LWC V2.00 B2112,2013-01-28 15:18:00,
2013-01-28 10:23:00,39.4,35.8,30.57,SE,135,0.0,0.0,87,0.00,,,0.00,LWC V2.00 B2112,2013-01-28 15:23:00,
2013-01-28 10:28:00,39.9,36.5,30.57,SE,135,0.0,2.5,87,0.00,,,0.00,LWC V2.00 B2112,2013-01-28 15:28:00,
2013-01-28 10:33:00,40.5,36.6,30.57,SSE,157,0.0,0.0,86,0.00,,,0.00,LWC V2.00 B2112,2013-01-28 15:33:00,
2013-01-28 10:38:00,40.5,36.6,30.57,SSE,157,0.0,0.0,86,0.00,,,0.00,LWC V2.00 B2112,2013-01-28 15:38:00,
2013-01-28 10:43:00,40.6,36.4,30.57,SSE,157,1.3,1.3,85,0.00,,,0.00,LWC V2.00 B2112,2013-01-28 15:43:00,
2013-01-28 10:48:00,40.8,36.6,30.57,SSE,157,0.7,0.9,85,0.00,,,0.00,LWC V2.00 B2112,2013-01-28 15:48:00,
2013-01-28 10:53:00,40.8,36.6,30.56,SSE,157,0.0,0.0,85,0.00,,,0.00,LWC V2.00 B2112,2013-01-28 15:53:00,
2013-01-28 10:58:00,41.4,36.8,30.56,SSE,157,0.0,0.0,84,0.00,,,0.00,LWC V2.00 B2112,2013-01-28 15:58:00,
2013-01-28 11:03:00,42.1,37.5,30.57,SSE,157,0.0,0.0,84,0.00,,,0.00,LWC V2.00 B2112,2013-01-28 16:03:00,
2013-01-28 11:08:00,42.1,37.2,30.55,WSW,247,0.0,0.0,83,0.00,,,0.00,LWC V2.00 B2112,2013-01-28 16:08:00,
2013-01-28 11:13:00,42.6,37.6,30.56,SSE,157,1.6,1.6,83,0.00,,,0.00,LWC V2.00 B2112,2013-01-28 16:13:00,
2013-01-28 11:18:00,43.0,38.1,30.54,SSE,157,0.0,0.7,83,0.00,,,0.00,LWC V2.00 B2112,2013-01-28 16:18:00,
2013-01-28 11:23:00,43.2,38.3,30.54,SE,135,2.5,2.5,83,0.00,,,0.00,LWC V2.00 B2112,2013-01-28 16:23:00,
2013-01-28 11:28:00,43.5,38.6,30.54,South,180,2.0,2.0,82,0.00,,,0.00,LWC V2.00 B2112,2013-01-28 16:28:00,
2013-01-28 11:33:00,44.2,39.1,30.54,SE,135,0.0,0.0,82,0.00,,,0.00,LWC V2.00 B2112,2013-01-28 16:33:00,
2013-01-28 11:38:00,44.6,39.1,30.53,SSW,202,0.0,0.0,81,0.00,,,0.00,LWC V2.00 B2112,2013-01-28 16:38:00,
2013-01-28 11:43:00,45.0,39.5,30.53,SE,135,3.8,3.8,81,0.00,,,0.00,LWC V2.00 B2112,2013-01-28 16:43:00,
2013-01-28 11:48:00,45.0,39.2,30.53,SSE,157,4.5,4.5,80,0.00,,,0.00,LWC V2.00 B2112,2013-01-28 16:48:00,
2013-01-28 11:53:00,45.0,38.9,30.52,South,180,1.8,1.8,79,0.00,,,0.00,LWC V2.00 B2112,2013-01-28 16:53:00,
2013-01-28 11:58:00,45.0,38.9,30.52,SE,135,1.3,1.3,79,0.00,,,0.00,LWC V2.00 B2112,2013-01-28 16:58:00,
2013-01-28 12:03:00,45.0,38.9,30.51,SSE,157,0.0,0.0,79,0.00,,,0.00,LWC V2.00 B2112,2013-01-28 17:03:00,
2013-01-28 12:08:00,45.1,39.0,30.51,ESE,112,0.7,0.7,79,0.00,,,0.00,LWC V2.00 B2112,2013-01-28 17:08:00,
2013-01-28 12:13:00,45.3,39.2,30.50,SSE,157,4.5,4.5,79,0.00,,,0.00,LWC V2.00 B2112,2013-01-28 17:13:00,
2013-01-28 12:18:00,45.5,39.4,30.51,SSW,202,0.7,0.7,79,0.00,,,0.00,LWC V2.00 B2112,2013-01-28 17:18:00,
2013-01-28 12:23:00,45.7,39.6,30.50,South,180,0.0,0.7,79,0.00,,,0.00,LWC V2.00 B2112,2013-01-28 17:23:00,
2013-01-28 12:28:00,45.9,39.2,30.50,SSE,157,3.1,3.1,78,0.00,,,0.00,LWC V2.00 B2112,2013-01-28 17:28:00,
2013-01-28 12:33:00,46.0,39.6,30.49,SE,135,1.8,1.8,78,0.00,,,0.00,LWC V2.00 B2112,2013-01-28 17:33:00,
2013-01-28 12:38:00,46.2,39.8,30.49,SE,135,0.0,0.0,78,0.00,,,0.00,LWC V2.00 B2112,2013-01-28 17:38:00,
2013-01-28 12:43:00,46.8,40.1,30.49,SE,135,0.0,0.0,78,0.00,,,0.00,LWC V2.00 B2112,2013-01-28 17:43:00,
2013-01-28 12:48:00,47.1,40.3,30.48,SE,135,0.0,0.0,77,0.00,,,0.00,LWC V2.00 B2112,2013-01-28 17:48:00,
2013-01-28 12:53:00,47.5,40.6,30.48,SE,135,1.1,1.1,77,0.00,,,0.00,LWC V2.00 B2112,2013-01-28 17:53:00,
2013-01-28 12:58:00,48.0,40.7,30.47,SSW,202,1.1,1.6,76,0.00,,,0.00,LWC V2.00 B2112,2013-01-28 17:58:00,
2013-01-28 13:03:00,48.7,41.1,30.47,ESE,112,0.0,0.0,75,0.00,,,0.00,LWC V2.00 B2112,2013-01-28 18:03:00,
2013-01-28 13:08:00,48.9,40.9,30.47,West,270,0.0,0.0,74,0.00,,,0.00,LWC V2.00 B2112,2013-01-28 18:08:00,
2013-01-28 13:13:00,49.3,41.3,30.47,SW,225,0.0,0.0,74,0.00,,,0.00,LWC V2.00 B2112,2013-01-28 18:13:00,
2013-01-28 13:18:00,49.8,41.8,30.46,South,180,0.0,0.7,74,0.00,,,0.00,LWC V2.00 B2112,2013-01-28 18:18:00,
2013-01-28 13:23:00,49.8,41.8,30.46,South,180,0.0,0.0,74,0.00,,,0.00,LWC V2.00 B2112,2013-01-28 18:23:00,
2013-01-28 13:28:00,49.8,41.8,30.45,South,180,0.0,0.0,74,0.00,,,0.00,LWC V2.00 B2112,2013-01-28 18:28:00,
2013-01-28 13:33:00,49.6,41.6,30.45,South,180,0.0,0.0,74,0.00,,,0.00,LWC V2.00 B2112,2013-01-28 18:33:00,
2013-01-28 13:38:00,49.6,41.6,30.44,SSE,157,0.0,0.0,74,0.00,,,0.00,LWC V2.00 B2112,2013-01-28 18:38:00,
2013-01-28 13:43:00,49.6,41.6,30.44,SSW,202,0.0,0.0,74,0.00,,,0.00,LWC V2.00 B2112,2013-01-28 18:43:00,
2013-01-28 13:48:00,49.6,41.6,30.44,SSW,202,0.0,0.0,74,0.00,,,0.00,LWC V2.00 B2112,2013-01-28 18:48:00,
2013-01-28 13:53:00,49.6,41.6,30.44,SSW,202,0.0,0.0,74,0.00,,,0.00,LWC V2.00 B2112,2013-01-28 18:53:00,
2013-01-28 13:58:00,49.6,41.6,30.44,SSE,157,2.7,2.7,74,0.00,,,0.00,LWC V2.00 B2112,2013-01-28 18:58:00,
2013-01-28 14:03:00,49.8,41.8,30.43,SE,135,0.0,0.0,74,0.00,,,0.00,LWC V2.00 B2112,2013-01-28 19:03:00,
2013-01-28 14:08:00,49.8,42.2,30.43,SSW,202,0.4,0.4,75,0.00,,,0.00,LWC V2.00 B2112,2013-01-28 19:08:00,
2013-01-28 14:13:00,49.8,42.2,30.42,SSE,157,0.0,1.1,75,0.00,,,0.00,LWC V2.00 B2112,2013-01-28 19:13:00,
2013-01-28 14:18:00,50.2,42.5,30.42,SSE,157,0.7,5.8,75,0.00,,,0.00,LWC V2.00 B2112,2013-01-28 19:18:00,
2013-01-28 14:23:00,50.5,42.9,30.42,South,180,0.9,0.9,75,0.00,,,0.00,LWC V2.00 B2112,2013-01-28 19:23:00,
2013-01-28 14:28:00,50.7,43.1,30.41,South,180,0.0,2.5,75,0.00,,,0.00,LWC V2.00 B2112,2013-01-28 19:28:00,
2013-01-28 14:33:00,50.9,43.2,30.42,South,180,0.0,1.6,75,0.00,,,0.00,LWC V2.00 B2112,2013-01-28 19:33:00,
2013-01-28 14:38:00,51.1,43.4,30.41,NE,45,0.0,0.0,75,0.00,,,0.00,LWC V2.00 B2112,2013-01-28 19:38:00,
2013-01-28 14:43:00,51.6,43.8,30.42,SSW,202,0.0,0.0,75,0.00,,,0.00,LWC V2.00 B2112,2013-01-28 19:43:00,
2013-01-28 14:48:00,51.8,44.2,30.42,WSW,247,0.0,0.0,75,0.00,,,0.00,LWC V2.00 B2112,2013-01-28 19:48:00,
2013-01-28 14:53:00,52.0,44.3,30.42,WNW,292,0.0,0.0,75,0.00,,,0.00,LWC V2.00 B2112,2013-01-28 19:53:00,
2013-01-28 14:58:00,52.0,44.3,30.41,SSE,157,1.1,1.1,75,0.00,,,0.00,LWC V2.00 B2112,2013-01-28 19:58:00,
2013-01-28 15:03:00,52.0,44.3,30.42,SSE,157,0.0,1.6,75,0.00,,,0.00,LWC V2.00 B2112,2013-01-28 20:03:00,
2013-01-28 15:08:00,51.8,44.2,30.41,South,180,0.0,0.0,75,0.00,,,0.00,LWC V2.00 B2112,2013-01-28 20:08:00,
2013-01-28 15:13:00,51.6,44.0,30.41,WSW,247,0.0,0.0,75,0.00,,,0.00,LWC V2.00 B2112,2013-01-28 20:13:00,
2013-01-28 15:18:00,51.6,44.0,30.41,South,180,0.0,0.0,75,0.00,,,0.00,LWC V2.00 B2112,2013-01-28 20:18:00,
2013-01-28 15:23:00,51.4,43.8,30.41,SSE,157,2.7,2.7,75,0.00,,,0.00,LWC V2.00 B2112,2013-01-28 20:23:00,
2013-01-28 15:28:00,51.3,43.6,30.41,SSW,202,0.0,0.0,76,0.00,,,0.00,LWC V2.00 B2112,2013-01-28 20:28:00,
2013-01-28 15:33:00,51.3,44.0,30.41,SSE,157,0.0,2.2,76,0.00,,,0.00,LWC V2.00 B2112,2013-01-28 20:33:00,
2013-01-28 15:38:00,51.3,44.0,30.41,SSE,157,0.0,0.0,76,0.00,,,0.00,LWC V2.00 B2112,2013-01-28 20:38:00,
2013-01-28 15:43:00,51.1,43.8,30.41,SE,135,0.0,2.7,76,0.00,,,0.00,LWC V2.00 B2112,2013-01-28 20:43:00,
2013-01-28 15:48:00,51.1,43.8,30.41,SSW,202,0.7,0.7,76,0.00,,,0.00,LWC V2.00 B2112,2013-01-28 20:48:00,
2013-01-28 15:53:00,51.1,43.8,30.41,SE,135,0.0,0.0,76,0.00,,,0.00,LWC V2.00 B2112,2013-01-28 20:53:00,
2013-01-28 15:58:00,51.1,44.1,30.41,SE,135,0.0,0.0,77,0.00,,,0.00,LWC V2.00 B2112,2013-01-28 20:58:00,
2013-01-28 16:04:00,50.9,43.9,30.40,SE,135,0.0,0.0,77,0.00,,,0.00,LWC V2.00 B2112,2013-01-28 21:04:00,
2013-01-28 16:09:00,50.9,43.9,30.40,SSE,157,3.1,3.1,77,0.00,,,0.00,LWC V2.00 B2112,2013-01-28 21:09:00,
2013-01-28 16:14:00,50.7,43.8,30.40,South,180,0.0,3.1,77,0.00,,,0.00,LWC V2.00 B2112,2013-01-28 21:14:00,
2013-01-28 16:19:00,50.7,43.8,30.40,South,180,0.0,0.0,77,0.00,,,0.00,LWC V2.00 B2112,2013-01-28 21:19:00,
2013-01-28 16:24:00,50.5,43.6,30.39,South,180,0.0,0.0,77,0.00,,,0.00,LWC V2.00 B2112,2013-01-28 21:24:00,
2013-01-28 16:29:00,50.5,43.9,30.39,South,180,0.0,2.5,78,0.00,,,0.00,LWC V2.00 B2112,2013-01-28 21:29:00,
2013-01-28 16:34:00,50.4,43.4,30.39,South,180,0.0,0.0,77,0.00,,,0.00,LWC V2.00 B2112,2013-01-28 21:34:00,
2013-01-28 16:39:00,50.4,43.4,30.40,SSE,157,0.0,0.0,77,0.00,,,0.00,LWC V2.00 B2112,2013-01-28 21:39:00,
2013-01-28 16:44:00,50.2,43.6,30.39,SSE,157,0.0,0.0,78,0.00,,,0.00,LWC V2.00 B2112,2013-01-28 21:44:00,
2013-01-28 16:49:00,50.2,43.6,30.39,South,180,1.6,1.6,78,0.00,,,0.00,LWC V2.00 B2112,2013-01-28 21:49:00,
2013-01-28 16:54:00,50.0,43.4,30.39,SSW,202,0.9,0.9,78,0.00,,,0.00,LWC V2.00 B2112,2013-01-28 21:54:00,
2013-01-28 16:59:00,49.8,43.2,30.39,South,180,2.5,2.5,78,0.00,,,0.00,LWC V2.00 B2112,2013-01-28 21:59:00,
2013-01-28 17:04:00,49.8,43.2,30.38,South,180,0.0,0.0,78,0.00,,,0.00,LWC V2.00 B2112,2013-01-28 22:04:00,
2013-01-28 17:09:00,49.6,43.0,30.38,SSE,157,0.0,0.0,78,0.00,,,0.00,LWC V2.00 B2112,2013-01-28 22:09:00,
2013-01-28 17:14:00,49.3,42.7,30.39,SSW,202,0.0,0.0,78,0.00,,,0.00,LWC V2.00 B2112,2013-01-28 22:14:00,
2013-01-28 17:19:00,49.1,42.5,30.39,SSW,202,0.0,0.0,78,0.00,,,0.00,LWC V2.00 B2112,2013-01-28 22:19:00,
2013-01-28 17:24:00,49.1,42.6,30.39,South,180,2.0,2.0,79,0.00,,,0.00,LWC V2.00 B2112,2013-01-28 22:24:00,
2013-01-28 17:29:00,48.7,42.5,30.39,South,180,0.0,0.0,79,0.00,,,0.00,LWC V2.00 B2112,2013-01-28 22:29:00,
2013-01-28 17:34:00,48.7,42.5,30.39,SSE,157,0.0,0.0,79,0.00,,,0.00,LWC V2.00 B2112,2013-01-28 22:34:00,
2013-01-28 17:39:00,48.6,42.3,30.39,South,180,0.0,0.0,79,0.00,,,0.00,LWC V2.00 B2112,2013-01-28 22:39:00,
2013-01-28 17:44:00,48.6,42.6,30.39,South,180,0.0,0.0,80,0.00,,,0.00,LWC V2.00 B2112,2013-01-28 22:44:00,
2013-01-28 17:49:00,48.4,42.4,30.39,South,180,0.0,0.0,80,0.00,,,0.00,LWC V2.00 B2112,2013-01-28 22:49:00,
2013-01-28 17:54:00,48.4,42.4,30.40,SE,135,1.3,1.3,80,0.00,,,0.00,LWC V2.00 B2112,2013-01-28 22:54:00,
2013-01-28 17:59:00,48.6,42.9,30.40,SE,135,0.0,0.0,81,0.00,,,0.00,LWC V2.00 B2112,2013-01-28 22:59:00,
2013-01-28 18:04:00,48.6,42.9,30.39,SE,135,0.0,0.0,81,0.00,,,0.00,LWC V2.00 B2112,2013-01-28 23:04:00,
2013-01-28 18:09:00,48.4,42.7,30.39,SE,135,0.0,0.0,81,0.00,,,0.00,LWC V2.00 B2112,2013-01-28 23:09:00,
2013-01-28 18:14:00,48.2,42.6,30.39,SE,135,0.0,0.0,81,0.00,,,0.00,LWC V2.00 B2112,2013-01-28 23:14:00,
2013-01-28 18:19:00,48.2,42.6,30.39,SSE,157,0.0,0.0,81,0.00,,,0.00,LWC V2.00 B2112,2013-01-28 23:19:00,
2013-01-28 18:24:00,48.0,42.4,30.39,SSE,157,0.0,0.0,81,0.00,,,0.00,LWC V2.00 B2112,2013-01-28 23:24:00,
2013-01-28 18:29:00,48.0,42.4,30.39,SSE,157,0.0,0.0,81,0.00,,,0.00,LWC V2.00 B2112,2013-01-28 23:29:00,
2013-01-28 18:34:00,48.0,42.4,30.39,SSE,157,0.0,0.0,81,0.00,,,0.00,LWC V2.00 B2112,2013-01-28 23:34:00,
2013-01-28 18:39:00,48.0,42.4,30.39,SSE,157,0.0,0.0,81,0.00,,,0.00,LWC V2.00 B2112,2013-01-28 23:39:00,
2013-01-28 18:44:00,47.8,42.2,30.39,SSE,157,0.0,0.0,81,0.00,,,0.00,LWC V2.00 B2112,2013-01-28 23:44:00,
2013-01-28 18:49:00,47.8,42.2,30.39,SSE,157,0.0,0.0,81,0.00,,,0.00,LWC V2.00 B2112,2013-01-28 23:49:00,
2013-01-28 18:54:00,47.7,42.4,30.39,SSE,157,0.0,0.0,82,0.00,,,0.00,LWC V2.00 B2112,2013-01-28 23:54:00,
2013-01-28 18:59:00,47.7,42.4,30.40,SSE,157,0.0,0.0,82,0.00,,,0.00,LWC V2.00 B2112,2013-01-28 23:59:00,
2013-01-28 19:04:00,47.7,42.4,30.39,SSE,157,0.0,0.0,82,0.00,,,0.00,LWC V2.00 B2112,2013-01-29 00:04:00,
2013-01-28 19:09:00,47.5,42.2,30.39,SSE,157,0.0,0.0,82,0.00,,,0.00,LWC V2.00 B2112,2013-01-29 00:09:00,
2013-01-28 19:14:00,47.5,42.2,30.39,SSE,157,0.0,0.0,82,0.00,,,0.00,LWC V2.00 B2112,2013-01-29 00:14:00,
2013-01-28 19:19:00,47.3,42.1,30.38,SSE,157,0.7,0.7,82,0.00,,,0.00,LWC V2.00 B2112,2013-01-29 00:19:00,
2013-01-28 19:24:00,47.1,41.9,30.38,SSE,157,0.0,0.0,82,0.00,,,0.00,LWC V2.00 B2112,2013-01-29 00:24:00,
2013-01-28 19:29:00,46.9,41.7,30.38,SSE,157,0.0,0.0,82,0.00,,,0.00,LWC V2.00 B2112,2013-01-29 00:29:00,
2013-01-28 19:34:00,46.8,41.9,30.39,SSE,157,0.0,0.0,83,0.00,,,0.00,LWC V2.00 B2112,2013-01-29 00:34:00,
2013-01-28 19:39:00,46.6,41.7,30.39,SSE,157,0.0,0.0,83,0.00,,,0.00,LWC V2.00 B2112,2013-01-29 00:39:00,
2013-01-28 19:44:00,46.6,41.7,30.39,SSE,157,0.0,0.0,83,0.00,,,0.00,LWC V2.00 B2112,2013-01-29 00:44:00,
2013-01-28 19:49:00,46.6,41.7,30.38,SSE,157,0.0,0.0,83,0.00,,,0.00,LWC V2.00 B2112,2013-01-29 00:49:00,
2013-01-28 19:54:00,46.6,41.7,30.38,SSE,157,0.0,0.0,83,0.00,,,0.00,LWC V2.00 B2112,2013-01-29 00:54:00,
2013-01-28 19:59:00,46.4,41.6,30.38,SSE,157,0.0,0.0,83,0.00,,,0.00,LWC V2.00 B2112,2013-01-29 00:59:00,
2013-01-28 20:04:00,46.2,41.4,30.38,SSE,157,0.0,0.0,83,0.00,,,0.00,LWC V2.00 B2112,2013-01-29 01:04:00,
2013-01-28 20:09:00,46.2,41.4,30.38,SSE,157,0.0,0.0,83,0.00,,,0.00,LWC V2.00 B2112,2013-01-29 01:09:00,
2013-01-28 20:14:00,46.2,41.4,30.38,SSE,157,0.0,0.0,83,0.00,,,0.00,LWC V2.00 B2112,2013-01-29 01:14:00,
2013-01-28 20:19:00,46.0,41.5,30.38,SSE,157,0.0,0.0,84,0.00,,,0.00,LWC V2.00 B2112,2013-01-29 01:19:00,
2013-01-28 20:24:00,46.0,41.5,30.38,SSE,157,0.0,0.0,84,0.00,,,0.00,LWC V2.00 B2112,2013-01-29 01:24:00,
2013-01-28 20:29:00,46.0,41.5,30.38,SSE,157,0.0,0.0,84,0.00,,,0.00,LWC V2.00 B2112,2013-01-29 01:29:00,
2013-01-28 20:34:00,46.0,41.5,30.38,SSE,157,0.0,0.0,84,0.00,,,0.00,LWC V2.00 B2112,2013-01-29 01:34:00,
2013-01-28 20:39:00,46.0,41.5,30.38,SSE,157,0.0,0.0,84,0.00,,,0.00,LWC V2.00 B2112,2013-01-29 01:39:00,
2013-01-28 20:44:00,46.0,41.5,30.37,SSE,157,0.0,0.0,84,0.00,,,0.00,LWC V2.00 B2112,2013-01-29 01:44:00,
2013-01-28 20:49:00,46.0,41.5,30.38,SSE,157,0.0,0.0,84,0.00,,,0.00,LWC V2.00 B2112,2013-01-29 01:49:00,
2013-01-28 20:54:00,46.0,41.5,30.38,SSE,157,0.0,0.0,84,0.00,,,0.00,LWC V2.00 B2112,2013-01-29 01:54:00,
2013-01-28 20:59:00,46.0,41.5,30.37,SSE,157,0.0,0.0,84,0.00,,,0.00,LWC V2.00 B2112,2013-01-29 01:59:00,
2013-01-28 21:04:00,46.0,41.5,30.37,SSE,157,0.0,0.0,84,0.00,,,0.00,LWC V2.00 B2112,2013-01-29 02:04:00,
2013-01-28 21:09:00,45.9,41.3,30.36,SSE,157,0.0,0.0,84,0.00,,,0.00,LWC V2.00 B2112,2013-01-29 02:09:00,
2013-01-28 21:14:00,45.7,41.1,30.36,SSE,157,0.0,0.0,84,0.00,,,0.00,LWC V2.00 B2112,2013-01-29 02:14:00,
2013-01-28 21:19:00,45.7,41.1,30.36,SSE,157,0.0,0.0,84,0.00,,,0.00,LWC V2.00 B2112,2013-01-29 02:19:00,
2013-01-28 21:24:00,45.3,41.1,30.36,SSE,157,0.0,0.0,85,0.00,,,0.00,LWC V2.00 B2112,2013-01-29 02:24:00,
2013-01-28 21:29:00,45.3,41.1,30.36,SSE,157,0.0,0.0,85,0.00,,,0.00,LWC V2.00 B2112,2013-01-29 02:29:00,
2013-01-28 21:34:00,45.1,40.9,30.36,SSE,157,0.0,0.0,85,0.00,,,0.00,LWC V2.00 B2112,2013-01-29 02:34:00,
2013-01-28 21:39:00,45.1,40.9,30.36,SSE,157,0.0,0.0,85,0.00,,,0.00,LWC V2.00 B2112,2013-01-29 02:39:00,
2013-01-28 21:44:00,45.1,40.9,30.36,SSE,157,0.0,0.0,85,0.00,,,0.00,LWC V2.00 B2112,2013-01-29 02:44:00,
2013-01-28 21:49:00,45.1,40.9,30.36,SSE,157,0.0,0.0,85,0.00,,,0.00,LWC V2.00 B2112,2013-01-29 02:49:00,
2013-01-28 21:54:00,45.1,40.9,30.36,SSE,157,0.0,0.0,85,0.00,,,0.00,LWC V2.00 B2112,2013-01-29 02:54:00,
2013-01-28 21:59:00,45.1,40.9,30.36,SW,225,0.0,0.0,85,0.00,,,0.00,LWC V2.00 B2112,2013-01-29 02:59:00,
2013-01-28 22:04:00,45.1,40.9,30.36,SW,225,0.0,0.0,85,0.00,,,0.00,LWC V2.00 B2112,2013-01-29 03:04:00,
2013-01-28 22:09:00,45.3,41.4,30.36,SW,225,0.0,0.0,86,0.00,,,0.00,LWC V2.00 B2112,2013-01-29 03:09:00,
2013-01-28 22:14:00,45.5,41.6,30.36,SW,225,0.0,0.0,86,0.00,,,0.00,LWC V2.00 B2112,2013-01-29 03:14:00,
2013-01-28 22:19:00,45.7,41.8,30.36,South,180,0.0,1.8,86,0.00,,,0.00,LWC V2.00 B2112,2013-01-29 03:19:00,
2013-01-28 22:24:00,45.7,41.8,30.36,SSW,202,0.0,1.6,86,0.00,,,0.00,LWC V2.00 B2112,2013-01-29 03:24:00,
2013-01-28 22:29:00,45.7,41.8,30.35,South,180,0.0,0.0,86,0.00,,,0.00,LWC V2.00 B2112,2013-01-29 03:29:00,
2013-01-28 22:34:00,46.0,42.1,30.35,South,180,1.8,1.8,86,0.00,,,0.00,LWC V2.00 B2112,2013-01-29 03:34:00,
2013-01-28 22:39:00,46.2,42.3,30.35,South,180,0.0,0.0,86,0.00,,,0.00,LWC V2.00 B2112,2013-01-29 03:39:00,
2013-01-28 22:44:00,46.4,42.5,30.35,SW,225,0.0,0.0,86,0.00,,,0.00,LWC V2.00 B2112,2013-01-29 03:44:00,
2013-01-28 22:49:00,46.6,42.6,30.35,SSW,202,0.0,0.0,86,0.00,,,0.00,LWC V2.00 B2112,2013-01-29 03:49:00,
2013-01-28 22:54:00,46.8,43.1,30.35,SSW,202,0.0,0.0,87,0.00,,,0.00,LWC V2.00 B2112,2013-01-29 03:54:00,
2013-01-28 22:59:00,47.1,43.5,30.34,South,180,0.0,0.0,87,0.00,,,0.00,LWC V2.00 B2112,2013-01-29 03:59:00,
2013-01-28 23:04:00,47.1,43.5,30.35,NW,315,0.0,0.0,87,0.00,,,0.00,LWC V2.00 B2112,2013-01-29 04:04:00,
2013-01-28 23:09:00,47.5,43.8,30.35,South,180,0.0,0.0,87,0.00,,,0.00,LWC V2.00 B2112,2013-01-29 04:09:00,
2013-01-28 23:14:00,47.8,44.2,30.35,ESE,112,0.0,0.0,87,0.00,,,0.00,LWC V2.00 B2112,2013-01-29 04:14:00,
2013-01-28 23:19:00,48.0,44.3,30.35,SSW,202,0.0,0.0,87,0.00,,,0.00,LWC V2.00 B2112,2013-01-29 04:19:00,
2013-01-28 23:24:00,48.2,44.5,30.34,SSW,202,0.0,0.0,87,0.00,,,0.00,LWC V2.00 B2112,2013-01-29 04:24:00,
2013-01-28 23:30:00,48.4,44.7,30.34,South,180,0.9,0.9,87,0.00,,,0.00,LWC V2.00 B2112,2013-01-29 04:30:00,
2013-01-28 23:34:00,48.6,44.9,30.34,SSE,157,1.1,1.1,87,0.00,,,0.00,LWC V2.00 B2112,2013-01-29 04:34:00,
2013-01-28 23:39:00,48.6,44.9,30.34,South,180,0.0,0.0,87,0.00,,,0.00,LWC V2.00 B2112,2013-01-29 04:39:00,
2013-01-28 23:44:00,48.7,45.0,30.34,SSW,202,0.0,0.0,87,0.00,,,0.00,LWC V2.00 B2112,2013-01-29 04:44:00,
2013-01-28 23:49:00,48.7,45.0,30.34,South,180,0.7,0.7,87,0.00,,,0.00,LWC V2.00 B2112,2013-01-29 04:49:00,
2013-01-28 23:54:00,48.7,45.0,30.34,SSE,157,0.0,0.0,87,0.00,,,0.00,LWC V2.00 B2112,2013-01-29 04:54:00,
2013-01-28 23:59:00,48.7,45.0,30.34,SSW,202,2.5,2.5,87,0.00,,,0.00,LWC V2.00 B2112,2013-01-29 04:59:00,